Weather in Kandahar

Afghanistan     31˚38′16″N   65˚43′48″E
temp.,
°C
wind,
m/s
gust,
m/s
humid.,
%
clouds,
%
prec.,
mm/h
press.,
hPa
HPBL,
m
3 december, thu
thu301:30+12˚ese01400 0.0 101923
04:30+11˚se01400 0.0 101923
07:30+12˚se11410 0.0 102023
10:30+17˚sse10250 0.0 1020256
13:30+19˚ssw22230 0.0 1017589
16:30+18˚sw33280 0.0 101748
19:30+15˚sw12380 0.0 101823
22:30+13˚sse01421 0.0 101823
4 december, fri
fri401:30+12˚e01432 0.0 101723
04:30+11˚ssw11446 0.0 101623
07:30+11˚ssw12422 0.0 101823
10:30+15˚ssw23296 0.0 1018355
13:30+18˚wsw55260 0.0 1016767
16:30+16˚wsw57340 0.0 1015191
19:30+14˚wsw34430 0.0 101739
22:30+12˚wsw33510 0.0 101728
5 december, sat
sat501:30+10˚sw126232 0.0 101722
04:30+9˚s126725 0.0 101622
07:30+8˚sse11690 0.0 101922
10:30+12˚s11500 0.0 1019431
13:30+15˚sw23380 0.0 1017743
16:30+14˚sw443834 0.0 1016424
19:30+12˚sw1148100 0.0 101822
22:30+11˚se0051100 0.0 101922
6 december, sun
sun601:30+11˚ne2248100 0.0 101922
04:30+11˚ne2348100 0.0 101825
07:30+12˚ne2344100 0.0 102033
10:30+15˚ne233487 0.0 1020358
13:30+17˚ene333284 0.0 1016471
16:30+17˚ne343891 0.0 1016135
19:30+15˚ne5950100 0.0 1017359
22:30+14˚ne4661100 0.0 1017218
7 december, mon
mon701:30+13˚ne4564100 0.0 1017139
04:30+13˚ne3366100 0.1 101646
07:30+12˚e126898 0.0 101822
10:30+16˚ssw234683 0.0 1019549
13:30+15˚w444999 0.1 1018825
16:30+12˚n237599 1.3 1019303
19:30+11˚nne2383100 4.6 1020244
22:30+10˚ene2390100 13.1 1021245